Wind_Speed
9 9 9 9 9 8 8 8 9 8 8 7 7 6 6 6 6 5 6 6 6 6 6 6 6 6 6 6 6 7 7 7 7 7 8 8 8 8 8 8 8 9 8
10 10 9 9 9 8 8 9 9 9 9 9 8 7 7 7 7 6 6 6 7 7 7 7 7 7 7 7 7 7 8 8 8 8 8 8 8 8 8 9 9 10 10
10 11 10 10 10 10 10 10 10 10 10 10 8 8 8 8 8 8 7 7 7 8 8 8 8 9 8 8 8 8 8 8 9 9 9 9 9 10 9 10 11 10 10
11 12 12 11 11 11 11 11 11 11 11 10 10 10 10 9 9 9 9 8 8 9 9 9 9 10 10 10 10 9 9 9 9 9 9 10 11 11 11 11 11 11 12
13 13 12 12 12 12 12 12 12 12 12 12 12 12 11 11 11 10 10 10 10 10 10 10 10 10 10 10 11 11 11 10 10 10 10 10 12 12 12 12 12 13 13
13 13 13 13 13 13 13 13 13 13 13 13 13 12 12 12 12 12 12 12 12 11 11 11 11 10 10 11 11 11 11 11 11 11 11 11 12 13 13 13 13 13 13
12 12 13 14 14 14 14 15 14 14 14 13 13 13 13 13 13 13 13 13 13 13 12 12 11 11 11 11 12 12 12 13 13 13 12 12 13 14 13 14 14 14 13
12 13 14 15 16 16 16 15 15 15 14 14 14 13 14 14 14 14 14 14 14 14 13 13 13 13 12 12 13 13 14 14 14 14 13 13 14 14 14 14 14 14 14
14 14 16 16 16 16 16 16 16 16 16 15 15 14 14 14 14 15 16 15 15 15 14 14 14 14 14 14 14 14 15 15 15 15 14 15 15 14 14 14 14 14 15
16 16 18 17 17 16 16 17 17 18 17 16 16 16 16 15 15 16 16 17 17 16 16 16 16 16 15 15 16 16 16 16 16 16 15 16 15 15 15 15 15 15 16
18 18 18 18 17 18 18 18 18 18 18 17 17 18 17 17 16 17 17 17 17 17 17 17 17 17 17 17 17 17 17 17 16 16 16 16 16 16 16 15 16 16 16
19 19 19 19 18 19 20 20 19 19 18 18 18 18 18 18 17 17 18 18 18 18 18 18 18 18 18 19 19 19 19 18 17 17 17 17 17 17 16 16 16 16 16
20 20 20 20 20 21 20 20 19 19 20 19 19 19 18 19 19 19 19 19 20 20 20 20 20 19 20 20 20 20 20 19 19 19 19 19 19 18 18 17 17 17 17
21 21 21 21 20 21 21 20 20 20 20 19 19 19 19 20 20 20 20 20 21 21 20 20 20 20 20 21 21 20 20 20 20 20 20 20 21 20 19 18 18 19 18
21 21 21 21 21 21 21 21 21 20 20 20 21 21 21 20 20 20 20 20 20 20 20 19 19 19 20 21 21 21 21 22 22 21 21 22 22 21 20 20 20 20 19
21 21 21 21 21 21 21 21 21 21 21 20 21 20 19 18 19 19 20 20 20 20 19 19 19 19 19 20 21 21 21 22 22 22 22 22 22 22 22 21 21 20 21
21 21 21 21 21 21 22 22 21 22 22 21 20 19 19 19 19 20 20 20 20 20 19 19 20 20 19 20 20 21 21 22 22 23 23 23 23 23 22 22 23 22 22
21 21 21 21 22 22 23 23 23 22 21 21 21 21 21 20 20 20 21 21 21 20 20 20 21 21 21 20 21 21 21 22 23 23 23 23 23 23 23 23 23 23 23
21 21 21 22 22 23 23 22 22 21 20 21 21 21 22 21 21 21 22 21 21 20 20 21 21 21 23 22 22 22 21 22 23 23 24 24 24 24 24 24 24 24 23
22 21 21 21 22 22 23 22 21 21 21 22 22 22 22 22 22 22 22 22 22 21 21 22 22 22 23 23 23 23 22 22 23 23 24 24 24 24 24 24 24 24 24
22 22 22 22 23 23 23 23 23 23 23 23 23 23 23 23 23 23 23 23 23 22 22 23 23 23 23 24 24 24 24 24 23 24 24 24 24 24 24 24 24 24 24
23 23 23 23 23 23 24 24 24 25 25 25 25 24 24 24 23 24 24 24 24 23 22 22 22 22 22 24 24 24 24 25 24 24 24 24 24 25 25 24 24 24 24
24 24 24 24 24 25 25 25 26 26 26 26 25 25 25 25 24 24 24 24 24 23 23 23 23 22 22 22 23 24 24 24 24 24 25 24 24 24 23 24 24 23 23
24 24 25 25 25 26 26 26 26 26 25 25 24 24 25 25 25 25 25 25 25 24 24 24 24 23 23 22 23 24 24 24 24 24 24 25 25 24 24 24 24 24 24
25 26 26 26 26 26 26 25 25 25 24 24 23 24 24 25 25 25 25 25 25 24 24 24 24 24 23 23 23 23 23 24 24 25 25 25 25 25 25 24 24 24 24
26 26 26 26 26 25 25 24 24 24 24 23 23 23 24 25 25 25 24 24 24 24 24 25 25 24 24 24 24 23 24 24 24 24 25 25 26 26 26 25 25 25 25
Wind_Direction
329 331 333 326 323 317 310 310 307 304 301 300 299 294 287 282 279 275 270 265 262 261 260 262 261 252 251 250 249 247 248 246 244 243 241 241 241 242 243 241 238 239 241
322 326 326 324 321 315 305 302 303 301 299 297 296 294 290 286 281 273 269 269 267 265 265 266 265 256 255 253 250 248 247 246 244 245 243 243 243 244 246 245 240 240 245
317 318 320 316 314 312 308 302 300 299 297 293 288 288 287 287 281 276 272 271 271 271 270 269 268 262 258 257 254 250 251 247 245 244 242 242 241 242 244 248 245 244 247
315 313 313 313 310 307 306 303 299 297 296 289 287 286 284 283 281 277 272 272 272 271 271 273 270 264 261 258 256 252 251 250 247 246 244 241 240 242 245 249 250 248 247
313 312 313 314 312 309 306 302 297 295 293 291 287 286 285 280 279 277 273 272 271 271 271 270 268 266 263 258 255 251 252 251 249 248 246 245 243 244 245 246 251 251 249
312 316 320 317 313 311 309 306 300 295 292 288 286 284 283 280 279 278 276 274 271 270 270 270 267 267 266 260 255 256 256 251 250 249 248 250 250 248 247 245 249 251 250
315 318 319 317 314 310 307 304 300 297 294 289 286 284 284 282 280 279 278 275 273 271 270 271 270 268 268 264 257 257 257 254 252 250 249 249 249 247 249 250 250 251 249
316 317 316 314 311 309 307 303 300 297 294 291 287 287 287 286 282 279 278 277 274 272 271 272 271 268 266 264 258 255 256 256 257 256 254 253 253 251 252 254 253 251 248
311 312 312 312 310 308 306 303 299 297 293 292 291 290 288 287 283 281 278 277 275 273 272 273 272 269 266 264 260 259 258 259 261 260 259 256 255 254 255 254 252 251 248
309 310 311 310 309 308 306 303 300 297 294 291 290 289 287 286 285 283 280 277 277 276 274 273 273 270 267 265 262 260 259 259 260 262 261 258 256 256 257 256 255 253 251
308 309 311 309 308 309 307 304 300 297 293 291 291 288 286 286 285 283 282 277 275 276 277 275 273 271 268 264 263 260 261 260 259 260 261 259 257 257 257 257 257 256 253
309 308 308 309 308 307 306 304 301 297 293 291 292 289 286 285 285 284 284 280 277 277 277 276 273 271 269 265 263 262 262 261 260 258 260 261 259 258 258 257 255 256 255
307 306 305 307 307 305 305 306 303 300 297 296 294 291 289 286 284 283 283 280 277 277 277 276 273 272 270 266 264 263 263 261 260 258 258 260 258 258 258 256 255 256 256
307 306 306 306 308 307 305 305 304 300 299 299 298 295 291 287 286 284 284 280 278 277 278 276 273 272 271 267 264 262 262 260 259 258 258 259 259 259 257 257 256 256 256
307 308 307 306 306 306 307 304 302 302 301 301 300 298 293 291 290 288 288 285 281 279 279 277 273 271 269 267 264 262 262 261 259 259 260 260 259 258 257 257 257 257 255
307 306 307 307 306 305 305 303 302 305 307 304 302 302 299 295 291 289 289 288 287 285 282 279 276 274 271 268 267 264 262 263 260 262 262 261 258 257 258 258 256 255 255
306 306 306 305 305 306 305 303 301 302 303 304 302 302 301 297 293 291 290 289 288 285 285 282 275 272 271 269 268 268 265 264 262 263 264 262 259 258 258 259 257 255 255
305 305 304 304 304 304 304 303 301 300 302 301 301 300 298 296 292 290 290 290 290 286 283 282 278 272 269 268 267 268 267 263 263 263 265 262 259 258 258 258 257 256 256
307 305 305 305 304 304 303 301 299 297 301 301 300 299 298 297 294 293 291 290 289 288 285 282 280 276 270 267 266 265 266 264 264 264 264 263 261 259 258 257 256 256 256
308 307 305 305 305 304 304 301 298 297 299 300 299 299 298 297 296 294 291 289 288 287 285 283 281 276 272 269 266 264 266 267 265 265 264 264 262 259 258 258 257 257 256
307 308 306 305 305 305 305 304 299 297 295 295 295 297 296 295 293 292 290 288 287 286 284 284 283 279 275 270 267 264 265 266 266 266 264 262 261 261 261 261 258 257 256
307 307 308 307 305 306 306 305 300 297 294 292 292 293 294 294 292 290 289 287 286 285 284 285 285 282 278 273 269 265 265 266 267 265 265 262 260 260 261 261 259 258 257
308 307 308 309 309 307 305 304 302 299 296 292 292 292 294 292 290 289 286 285 285 285 285 285 285 283 280 275 270 268 266 265 267 265 265 263 262 261 260 259 259 258 256
307 307 308 308 308 308 307 304 303 301 298 295 293 292 293 292 291 290 287 284 284 284 284 284 283 283 281 278 275 270 267 266 267 265 265 265 262 261 261 260 259 257 257
307 308 308 308 309 309 308 306 305 303 302 299 295 294 294 293 293 290 287 283 282 283 283 283 282 281 281 278 276 273 268 267 267 266 265 265 264 263 262 260 260 258 257
310 310 310 310 312 312 310 308 307 305 304 302 300 298 296 294 292 289 287 284 282 282 283 283 282 281 281 279 275 272 270 269 269 266 265 266 266 264 262 260 259 259 258
Height
5891 5890 5890 5889 5888 5888 5887 5886 5885 5885 5884 5883 5882 5881 5880 5880 5880 5880 5879 5879 5879 5878 5878 5878 5878 5878 5878 5878 5879 5879 5879 5880 5880 5881 5882 5883 5883 5884 5885 5886 5887 5888 5889
5890 5889 5889 5888 5887 5886 5886 5885 5884 5883 5882 5882 5881 5880 5879 5879 5878 5878 5878 5878 5877 5877 5877 5877 5877 5877 5877 5877 5877 5877 5878 5878 5879 5880 5880 5881 5882 5883 5884 5885 5886 5887 5888
5889 5888 5887 5886 5886 5885 5884 5883 5882 5882 5881 5880 5879 5878 5878 5877 5877 5877 5876 5876 5876 5876 5876 5875 5875 5875 5875 5875 5875 5876 5876 5876 5877 5878 5879 5880 5881 5881 5882 5883 5884 5885 5886
5888 5887 5886 5885 5884 5883 5882 5881 5880 5879 5878 5877 5876 5876 5876 5875 5875 5875 5875 5875 5874 5874 5874 5874 5874 5873 5873 5874 5874 5874 5874 5875 5875 5876 5877 5878 5878 5879 5880 5881 5882 5883 5884
5886 5884 5883 5882 5882 5881 5880 5879 5878 5877 5876 5875 5874 5874 5874 5873 5873 5873 5873 5873 5872 5872 5872 5872 5872 5872 5871 5871 5872 5872 5873 5873 5874 5874 5875 5876 5876 5877 5878 5879 5880 5881 5882
5884 5882 5881 5880 5879 5878 5878 5876 5875 5874 5874 5873 5872 5872 5871 5871 5871 5871 5870 5870 5870 5870 5870 5870 5869 5869 5869 5869 5870 5870 5871 5871 5872 5872 5873 5874 5874 5875 5876 5876 5877 5878 5879
5882 5880 5879 5878 5877 5876 5875 5874 5873 5872 5871 5870 5870 5869 5869 5869 5868 5868 5868 5868 5867 5867 5867 5867 5867 5867 5867 5867 5868 5868 5868 5869 5869 5870 5871 5871 5872 5872 5873 5874 5875 5876 5877
5879 5878 5877 5876 5874 5873 5872 5871 5870 5869 5868 5868 5867 5866 5866 5866 5866 5865 5865 5865 5865 5864 5864 5864 5864 5865 5865 5865 5865 5865 5866 5866 5867 5866 5868 5869 5869 5869 5871 5871 5872 5873 5874
5877 5876 5875 5873 5872 5870 5869 5868 5867 5866 5865 5865 5864 5863 5863 5863 5862 5862 5862 5862 5861 5861 5861 5861 5861 5862 5862 5862 5862 5862 5863 5863 5864 5864 5865 5866 5866 5867 5868 5868 5869 5870 5871
5875 5873 5872 5870 5869 5867 5866 5865 5863 5862 5861 5861 5860 5860 5860 5859 5859 5858 5858 5858 5858 5858 5858 5858 5858 5858 5858 5858 5858 5859 5860 5860 5861 5861 5862 5863 5863 5864 5865 5866 5867 5868 5869
5872 5870 5869 5867 5865 5864 5863 5861 5860 5859 5858 5857 5857 5856 5856 5856 5855 5855 5854 5854 5854 5854 5854 5854 5854 5854 5854 5854 5855 5855 5856 5857 5857 5858 5859 5859 5860 5861 5861 5862 5863 5865 5865
5869 5867 5865 5864 5862 5861 5859 5857 5856 5855 5854 5854 5853 5852 5852 5852 5851 5851 5850 5850 5849 5849 5849 5849 5849 5849 5850 5850 5850 5851 5852 5853 5854 5855 5855 5856 5856 5857 5858 5858 5860 5861 5862
5866 5864 5863 5861 5859 5857 5856 5853 5852 5851 5850 5849 5848 5848 5848 5847 5846 5846 5846 5845 5844 5844 5844 5844 5844 5845 5845 5846 5846 5846 5847 5848 5849 5850 5851 5852 5852 5853 5854 5855 5856 5857 5858
5863 5861 5859 5858 5856 5854 5852 5850 5849 5848 5846 5845 5844 5843 5843 5842 5842 5841 5841 5840 5840 5839 5839 5839 5839 5839 5840 5840 5841 5841 5842 5843 5844 5845 5846 5847 5848 5849 5849 5850 5851 5853 5854
5860 5858 5856 5854 5853 5850 5849 5847 5846 5843 5841 5841 5840 5839 5838 5837 5836 5836 5835 5835 5834 5834 5834 5834 5834 5834 5834 5835 5835 5836 5837 5838 5839 5840 5841 5842 5843 5844 5845 5846 5847 5848 5849
5856 5854 5853 5851 5849 5847 5845 5843 5842 5840 5837 5837 5836 5834 5833 5832 5832 5831 5831 5830 5830 5829 5829 5828 5828 5829 5829 5829 5830 5831 5831 5833 5834 5834 5836 5837 5838 5839 5840 5841 5842 5843 5845
5853 5851 5849 5847 5845 5843 5841 5839 5838 5836 5834 5833 5831 5830 5829 5827 5827 5826 5826 5825 5825 5824 5824 5823 5823 5823 5824 5824 5825 5825 5826 5827 5828 5829 5829 5831 5832 5833 5834 5835 5837 5838 5840
5849 5847 5845 5843 5841 5839 5837 5835 5833 5831 5830 5828 5827 5826 5824 5823 5822 5821 5820 5820 5819 5819 5819 5818 5818 5818 5818 5819 5819 5820 5820 5821 5822 5823 5823 5824 5826 5827 5828 5830 5831 5833 5834
5845 5843 5841 5839 5837 5835 5832 5830 5828 5827 5825 5824 5823 5821 5820 5818 5817 5816 5815 5814 5813 5813 5813 5813 5813 5812 5812 5812 5813 5814 5814 5815 5816 5817 5818 5818 5820 5821 5822 5824 5826 5827 5828
5841 5839 5837 5835 5833 5830 5828 5826 5824 5822 5821 5819 5817 5816 5814 5813 5812 5811 5810 5809 5808 5808 5807 5807 5807 5806 5806 5806 5807 5808 5808 5809 5810 5811 5812 5812 5813 5815 5816 5818 5819 5821 5822
5838 5835 5833 5831 5828 5826 5823 5821 5819 5817 5815 5813 5812 5810 5809 5807 5806 5805 5804 5803 5802 5802 5801 5801 5800 5800 5800 5800 5801 5801 5802 5803 5804 5805 5805 5806 5807 5809 5810 5811 5813 5815 5816
5834 5831 5829 5826 5823 5821 5818 5815 5813 5811 5809 5807 5806 5804 5803 5801 5800 5799 5798 5797 5796 5796 5796 5795 5794 5794 5793 5793 5794 5794 5795 5797 5797 5798 5799 5800 5801 5803 5804 5805 5807 5809 5810
5830 5827 5824 5821 5818 5816 5813 5810 5807 5804 5802 5801 5799 5798 5797 5795 5794 5793 5792 5791 5790 5790 5790 5789 5788 5787 5787 5787 5787 5788 5789 5790 5791 5792 5793 5794 5795 5796 5798 5799 5801 5802 5804
5826 5823 5820 5817 5814 5810 5807 5804 5801 5798 5796 5794 5793 5792 5790 5789 5787 5786 5785 5785 5784 5783 5783 5783 5782 5781 5781 5781 5780 5781 5782 5783 5784 5785 5786 5787 5788 5789 5791 5793 5794 5796 5798
5821 5818 5815 5812 5808 5804 5801 5798 5795 5792 5790 5788 5786 5785 5784 5782 5781 5780 5778 5778 5777 5777 5776 5776 5775 5774 5774 5774 5774 5774 5775 5776 5777 5778 5780 5781 5781 5782 5784 5786 5787 5789 5791
5816 5813 5810 5807 5803 5799 5795 5792 5790 5787 5784 5782 5780 5779 5777 5776 5774 5773 5772 5771 5770 5770 5769 5769 5768 5767 5767 5767 5767 5767 5768 5769 5770 5771 5772 5773 5774 5776 5777 5778 5780 5782 5783